Location: Rounton
(54.4000°N, 1.3500°W)
Time: 05:28:30
(UTC+00:00)

A-11 Canister half - Pass Details

Date: 30 November 2021
Orbit: 1516 x 1684 km, 47.2° (Epoch: 21 January)

Event Time Altitude Azimuth Distance (km) Brightness Sun altitude
Rises 06:43:18 0° 190° (S) 4,772 11.7 -10.7°
Reaches altitude 10° 06:47:22 10° 175° (S) 3,820 11.5 -10.1°
Maximum altitude 06:53:57 21° 132° (SE) 3,097 11.7 -9.3°
Drops below altitude 10° 07:00:39 10° 89° (E) 3,914 12.3 -8.4°
Sets 07:04:51 0° 75° (ENE) 4,924 12.5 -7.8°
